Alexandroupoli, Greece

4:41 PM EEST on August 16, 2017 (GMT +0300)
Dimokritos

Weather History for LGAL - November, 2012

Change the Weather History Date:

Saturday, November 17, 2012

  Actual Average Record
Temperature  
Mean Temperature 56 °F -  
Max Temperature 61 °F 54 °F 68 °F (2000)
Min Temperature 50 °F 41 °F 27 °F (2016)
Degree Days  
Heating Degree Days 10    
Growing Degree Days 6 (Base 50)    
Moisture  
Dew Point 45 °F    
Average Humidity 67    
Maximum Humidity 82    
Minimum Humidity 43    
Precipitation  
Precipitation 0.00 in 0.11 in - ()
Sea Level Pressure  
Sea Level Pressure 30.19 in    
Wind  
Wind Speed 13 mph ()    
Max Wind Speed 20 mph    
Max Gust Speed 30 mph    
Visibility 6.2 miles    
Events      
Averages and records for this station are not official NWS values.
T = Trace of Precipitation, MM = Missing Value Source: Averaged Metar Reports

Daily Weather History Graph

Daily Weather History Graph

Search for Another Location

Airport or City:

Trip Planner

Search our weather history database for the weather conditions in past years. The results will help you decide how hot, cold, wet, or windy it might be!

Date:

Astronomy

Nov. 17, 2012 Rise Set
Actual Time 7:06 AM EET 4:56 PM EET
Civil Twilight 6:36 AM EET 5:25 PM EET
Nautical Twilight 6:03 AM EET 5:59 PM EET
Astronomical Twilight 5:30 AM EET 6:31 PM EET
Moon 10:35 AM EET (11/17) 8:43 PM EET (11/17)
Length of Visible Light 10h 49m
Length of Day
9h 50m
Waxing Crescent, 17% of the Moon is Illuminated
Nov 17
Waxing Crescent
Nov 20
First Quarter
Nov 28
Full
Dec 6
Last Quarter
Dec 13
New

Hourly Weather History & Observations

Time (EET) Temp. Dew Point Humidity Pressure Visibility Wind Dir Wind Speed Gust Speed Precip Events Conditions
12:20 AM 53.6 °F 46.4 °F 77% 30.24 in 6.2 mi NE 13.8 mph - N/A   Scattered Clouds
12:50 AM 53.6 °F 46.4 °F 77% 30.24 in 6.2 mi NNE 15.0 mph - N/A   Scattered Clouds
1:20 AM 53.6 °F 46.4 °F 77% 30.24 in 6.2 mi NNE 15.0 mph - N/A   Scattered Clouds
1:50 AM 53.6 °F 46.4 °F 77% 30.24 in 6.2 mi NNE 16.1 mph - N/A   Scattered Clouds
2:00 AM 54 °F 47 °F 70% 30.24 in 6 mi NNE 16.1 mph - -   Scattered Clouds
2:20 AM 53.6 °F 48.2 °F 82% 30.21 in 6.2 mi NNE 16.1 mph - N/A   Scattered Clouds
2:50 AM 53.6 °F 48.2 °F 82% 30.21 in 6.2 mi NNE 13.8 mph - N/A   Scattered Clouds
3:20 AM 53.6 °F 48.2 °F 82% 30.21 in 6.2 mi NNE 13.8 mph - N/A   Scattered Clouds
3:50 AM 53.6 °F 46.4 °F 77% 30.21 in 6.2 mi NNE 12.7 mph - N/A   Scattered Clouds
4:20 AM 53.6 °F 46.4 °F 77% 30.21 in 6.2 mi NNE 12.7 mph - N/A   Scattered Clouds
4:50 AM 53.6 °F 46.4 °F 77% 30.21 in 6.2 mi NNE 15.0 mph - N/A   Scattered Clouds
5:20 AM 53.6 °F 46.4 °F 77% 30.21 in 6.2 mi NNE 15.0 mph - N/A   Scattered Clouds
5:50 AM 53.6 °F 46.4 °F 77% 30.21 in 6.2 mi NNE 12.7 mph - N/A   Scattered Clouds
6:20 AM 53.6 °F 46.4 °F 77% 30.21 in 6.2 mi NE 12.7 mph - N/A   Scattered Clouds
6:50 AM 53.6 °F 46.4 °F 77% 30.21 in 6.2 mi NE 15.0 mph - N/A   Mostly Cloudy
7:20 AM 53.6 °F 46.4 °F 77% 30.21 in 6.2 mi NE 16.1 mph - N/A   Mostly Cloudy
7:50 AM 53.6 °F 46.4 °F 77% 30.21 in 6.2 mi NE 16.1 mph - N/A   Mostly Cloudy
8:00 AM 54 °F 46 °F 66% 30.21 in 6 mi NE 16.1 mph - -   Scattered Clouds
8:20 AM 53.6 °F 46.4 °F 77% 30.21 in 6.2 mi NE 16.1 mph - N/A   Mostly Cloudy
8:50 AM 57.2 °F 48.2 °F 72% 30.21 in 6.2 mi NE 16.1 mph - N/A   Scattered Clouds
9:20 AM 59.0 °F 48.2 °F 67% 30.21 in 6.2 mi NE 16.1 mph - N/A   Scattered Clouds
9:50 AM 60.8 °F 48.2 °F 63% 30.21 in 6.2 mi NNE 18.4 mph - N/A   Scattered Clouds
10:20 AM 59.0 °F 48.2 °F 67% 30.21 in 6.2 mi NNE 18.4 mph 29.9 mph N/A   Partly Cloudy
10:50 AM 59.0 °F 48.2 °F 67% 30.21 in 6.2 mi NNE 19.6 mph - N/A   Scattered Clouds
11:20 AM 59.0 °F 48.2 °F 67% 30.21 in 6.2 mi NNE 19.6 mph - N/A   Scattered Clouds
11:50 AM 60.8 °F 46.4 °F 59% 30.21 in 6.2 mi NE 18.4 mph - N/A   Scattered Clouds
12:20 PM 60.8 °F 46.4 °F 59% 30.21 in 6.2 mi NNE 15.0 mph - N/A   Scattered Clouds
12:50 PM 60.8 °F 42.8 °F 52% 30.21 in 6.2 mi NE 18.4 mph - N/A   Scattered Clouds
1:20 PM 60.8 °F 42.8 °F 52% 30.21 in 6.2 mi NE 16.1 mph - N/A   Scattered Clouds
1:50 PM 60.8 °F 44.6 °F 55% 30.18 in 6.2 mi ENE 17.3 mph - N/A   Scattered Clouds
2:00 PM 61 °F 44 °F 43% 30.19 in 6 mi ENE 17.3 mph - -   Partly Cloudy
2:20 PM 60.8 °F 44.6 °F 55% 30.18 in 6.2 mi NNE 13.8 mph - N/A   Scattered Clouds
2:50 PM 60.8 °F 44.6 °F 55% 30.15 in 6.2 mi NE 15.0 mph - N/A   Scattered Clouds
3:20 PM 60.8 °F 44.6 °F 55% 30.15 in 6.2 mi NNE 13.8 mph - N/A   Scattered Clouds
3:50 PM 60.8 °F 44.6 °F 55% 30.15 in 6.2 mi NNE 12.7 mph - N/A   Scattered Clouds
4:20 PM 60.8 °F 44.6 °F 55% 30.15 in 6.2 mi North 11.5 mph - N/A   Scattered Clouds
4:50 PM 57.2 °F 42.8 °F 59% 30.15 in 6.2 mi NNE 10.4 mph - N/A   Scattered Clouds
5:20 PM 57.2 °F 42.8 °F 59% 30.15 in 6.2 mi NNE 11.5 mph - N/A   Scattered Clouds
5:50 PM 57.2 °F 42.8 °F 59% 30.15 in 6.2 mi NNE 9.2 mph - N/A   Scattered Clouds
6:20 PM 55.4 °F 42.8 °F 63% 30.15 in 6.2 mi NNE 11.5 mph - N/A   Scattered Clouds
6:50 PM 55.4 °F 44.6 °F 67% 30.15 in 6.2 mi NNE 9.2 mph - N/A   Scattered Clouds
7:20 PM 53.6 °F 42.8 °F 67% 30.15 in 6.2 mi NNE 11.5 mph - N/A   Partly Cloudy
7:50 PM 53.6 °F 41.0 °F 62% 30.15 in 6.2 mi NNE 8.1 mph - N/A   Partly Cloudy
8:00 PM 54 °F 42 °F 52% 30.18 in 6 mi NNE 8.1 mph - -   Scattered Clouds
8:20 PM 51.8 °F 41.0 °F 67% 30.15 in 6.2 mi NNE 10.4 mph - N/A   Partly Cloudy
8:50 PM 50.0 °F 41.0 °F 71% 30.18 in 6.2 mi NNE 9.2 mph - N/A   Partly Cloudy
9:20 PM 50.0 °F 41.0 °F 71% 30.18 in 6.2 mi North 8.1 mph - N/A   Partly Cloudy
9:50 PM 50.0 °F 41.0 °F 71% 30.18 in 6.2 mi North 9.2 mph - N/A   Partly Cloudy
10:20 PM 50.0 °F 41.0 °F 71% 30.18 in 6.2 mi North 8.1 mph - N/A   Partly Cloudy
10:50 PM 50.0 °F 41.0 °F 71% 30.18 in 6.2 mi NNE 6.9 mph - N/A   Partly Cloudy
11:20 PM 50.0 °F 41.0 °F 71% 30.18 in 6.2 mi NNE 6.9 mph - N/A   Partly Cloudy
11:50 PM 50.0 °F 41.0 °F 71% 30.15 in 6.2 mi NNE 10.4 mph - N/A   Partly Cloudy